Regional Weather Roundup
Issued by NWS San Diego, CA

Home | Current Version | Previous Version | Text Only | Print | Product List | Glossary On
Versions: 1 2 3 4 5 6 7 8 9 10 11 12 13 14 15 16 17 18 19 20 21 22 23 24 25 26 27 28 29 30 31 32 33 34 35 36 37 38 39 40 41 42 43 44 45 46
000
ASUS46 KSGX 250211
RWRSGX

SAN DIEGO HOURLY WEATHER ROUNDUP
NATIONAL WEATHER SERVICE SAN DIEGO CA
700 PM PDT SUN JUL 24 2016

NOTE: "FAIR" INDICATES FEW OR NO CLOUDS BELOW 12,000 FEET WITH NO
SIGNIFICANT WEATHER AND/OR OBSTRUCTIONS TO VISIBILITY.

CAZ042-043-060-061-PZZ750-775-250300-

GREATER SAN DIEGO AREA

CITY           SKY/WX    TMP DP  RH WIND       PRES   REMARKS
LINDBERGH FLD  MOCLDY    73  65  75 S9        29.90R
POINT LOMA       N/A     77  66  68 SW8         N/A
NATIONAL CITY    N/A     77  69  76 CALM      29.90R
CHULA VISTA      N/A     77  69  78 W3        29.81S
IMPERIAL BEACH MOCLDY    76  66  71 SW14      29.89S
BROWN FIELD    MOCLDY    79  65  62 NW6       29.89S
MIRAMAR MCAS   PTCLDY    81  60  48 VRB7      29.89R
MONTGOMERY FLD PTCLDY    79  60  52 SW8       29.89S

$$

NORTH SAN DIEGO COUNTY

CITY           SKY/WX    TMP DP  RH WIND       PRES   REMARKS
CAMP PENDLETON   N/A     81  59  47 MISG      29.87S
OCEANSIDE AP   CLEAR     78  62  57 S6        29.87R
OCEANSIDE HBR    N/A     77  70  78 SW1       29.91R
VISTA            N/A     81  65  57 SW2       29.86R
CARLSBAD       CLEAR     77  63  61 S7        29.88S
DEL MAR          N/A     73  68  84 SW2       29.91R
LA JOLLA SCRIP   N/A     73  68  86 SW3       29.88R
FALLBROOK        N/A     85  62  46 SW3       29.86S
ESCONDIDO        N/A     85  65  51 SW8       29.89R
POWAY            N/A     86  64  47 CALM      29.87R

$$

EAST SAN DIEGO COUNTY

CITY           SKY/WX    TMP DP  RH WIND       PRES   REMARKS
RAMONA         PTCLDY    87  62  43 W10       29.92R
SANTEE LAKES     N/A     82  62  50 W8        29.86R
LA MESA          N/A     80  64  57 W7        29.82R
JAMUL            N/A     83  66  56 CALM      29.86S
DESCANSO N       N/A     83  58  41 CALM      29.72S
CAMPO            N/A     87  54  32 SW10      29.94S

$$

ORANGE COUNTY AND THE LOS ANGELES BASIN

CITY           SKY/WX    TMP DP  RH WIND       PRES   REMARKS
JOHN WAYNE AP  MOSUNNY   77  65  66 SW10      29.87S
LAGUNA BEACH     N/A     80  70  71 S2        29.82S
LAKE FOREST FR   N/A     86  46  24 SW2       29.75S
HUNTINGTON BCH   N/A     75  69  81 SW5       29.89S
LOS ALAMITOS   FAIR      76  67  74 S9        29.87S
FULLERTON      SUNNY     82  61  48 SW5       29.86R
LONG BEACH     SUNNY     75  66  73 S7        29.87S
L.A. AP        MOSUNNY   75  66  73 W9        29.88R
L.A. DOWNTOWN  SUNNY     84  66  54 CALM      29.86R

$$

THE INLAND EMPIRE

CITY           SKY/WX    TMP DP  RH WIND       PRES   REMARKS
CORONA         SUNNY     88  57  34 W12       29.86R
CHINO          MOSUNNY   90  51  26 W17       29.88R
ONTARIO        MOSUNNY   91  47  21 W17G24    29.88R
SAN BERNARDINO CLEAR     95  39  14 W12       29.89R
RIVERSIDE AP   SUNNY     91  49  23 W9        29.87R
MORENO VALLEY    N/A     92  51  24 W6        28.04S
MARCH ARB      CLEAR     91  50  24 NW9       29.91R
HORSETHIEF CYN   N/A     95  45  17 N3        29.86R
PERRIS           N/A     91  50  24 NW7       29.90R
HEMET EAST       N/A     92  38  15 SW3       29.76R
FRENCH VALLEY  FAIR      88  50  27 S8        29.92R
TEMECULA         N/A     87  56  34 SW5       29.86R

$$

SAN BERNARDINO AND RIVERSIDE COUNTY MOUNTAINS

CITY           SKY/WX    TMP DP  RH WIND       PRES   REMARKS
BIG BEAR AP    CLEAR     75  41  29 SW7       30.28S
PINE COVE        N/A     75  45  34 NW1       29.80S

$$

SOUTHERN DESERT INCLUDING THE COACHELLA VALLEY

CITY           SKY/WX    TMP DP  RH WIND       PRES   REMARKS
PALM SPRINGS   CLEAR    106  61  23 E7        29.75R HX 107
THOUSAND PALMS   N/A    105  63  25 SE8       29.71R HX 108
PALM DESERT      N/A    106  66  27 E3          N/A  HX 111
THERMAL        PTCLDY   105  60  22 SE10      29.68R HX 106
BLYTHE         MOCLDY   106  59  21 S14       29.72S HX 106
IMPERIAL AP    PTCLDY   100  69  36 SE21G28   29.71S HX 106
EL CENTRO NAS  LGT RAIN  98  67  36 SE18      29.72S HX 102
YUMA AZ        CLEAR     97  65  34 S17       29.76  HX  99
MEXICALI       PTCLDY    93  70  46 SE16      29.75S HX  99

$$

UPPER DESERT

CITY           SKY/WX    TMP DP  RH WIND       PRES   REMARKS
VICTORVILLE AP MOSUNNY   93  37  14 W14       29.95R HAZE
HESPERIA         N/A     89  46  22 S12       29.88R
PALMDALE       CLOUDY    91  32  12 SW23      29.92S HAZE
LANCASTER      SUNNY     91  34  13 W24       29.93S
EDWARDS AFB    SUNNY     95  19   6 SW23G30   29.88S
DAGGETT        CLOUDY   103  36  10 W23G30    29.83R HAZE    HX  97
29 PALMS N     CLEAR    100  45  15 SW23G30   29.89R HX  96
NEEDLES        CLOUDY   109  57  18 S15G24    29.74R HX 109

$$

REGIONAL REPORTS

CITY           SKY/WX    TMP DP  RH WIND       PRES   REMARKS
SANTA BARBARA  MOSUNNY   68  66  93 W10       29.87F FOG
SANDBERG       SUNNY     84  38  19 S13       30.13R
LAS VEGAS NV   CLEAR    107  33   8 S13G20    29.75S HX 100
PHOENIX AZ     PTCLDY   105  56  19 W14       29.76S HX 104
TIJUANA        MOCLDY    81  61  50 NW7       29.91S
ENSENADA NW      N/A     71  32  23 W6        29.86F

$$

OFFSHORE ISLANDS

CITY           SKY/WX    TMP DP  RH WIND       PRES   REMARKS
CATALINA ARPT  SUNNY     77  59  53 CALM      29.94S
SAN NICOLAS IS SUNNY     81  67  62 S6        29.89R

$$

MARINE AND OFFSHORE BUOY REPORTS

STATION/POSITION SKY/WX   TEMP    WIND        PRES    SWELL
                          AIR SEA DIR/SP/G            HT/PER/DIR
                          (F)     (DEG/KT/KT) (MB)    (FT/S/D)
TANNER BANKS               64 63  100/  6/  8 1012.0R   7/290/ 9
S CLEMENTE BASIN           68 71  170/  6/  8 1011.7R   5/280/ 9
SAN NICOLAS IS.               63                N/A     3/180/13
SO. S. ROSA ISLA           60 66  320/ 16/ 17 1012.1S   7/310/10
W. S. BARBARA CH           56 57  310/ 14/ 17 1012.2F   5/310/10
M. S. BARBARA CH                  290/ 10/ 14 1012.1F
S. MONICA BASIN            70 73  250/  4/  6 1011.8R   3/170/13
S PEDRO CHANNEL               73                N/A     2/170/13
OCEANSIDE OFFSHR                                N/A     2/180/14
LA JOLLA 1                 73 76  280/  3/  5   N/A
SAN DIEGO BAY                 79                N/A
POINT LOMA SOUTH              72                N/A     3/180/13

$$




USA.gov is the U.S. government's official web portal to all federal, state and local government web resources and services.